LiveATC.Net - Listen to live air traffic control over the Internet!


ICAO: KDWH  IATA: DWH   Airport: David Wayne Hooks Memorial Airport
City: Houston   State/Province: Texas
Country: United States   Continent: North America
KDWH METAR Weather: KDWH 181353Z VRB03KT 10SM CLR 15/12 A3017 RMK AO2 SLP216 T01500117 $
KDWH Flight Activity (FlightAware)
KDWH Airport Info   (iFlightPlanner)
KDWH VFR Sectional Chart   (iFlightPlanner) 
KDWH IFR Low Chart   (iFlightPlanner) 

KDWH Del/ Gnd/Twr
Feed Status: UP   Listeners: 1
Listen in your browser - HTML5 player (in browser, HTML5)
Click here to listen with your own player (launches your MP3 player)
Archive Access: KDWH Del/ Gnd/Twr
FacilityFrequency
Hooks Clearance Delivery119.450
Hooks Ground121.800
Hooks Tower (E)127.400
Hooks Tower (W)118.400
Hooks UNICOM122.950

NOTICE

Unauthorized use prohibited. See LiveATC.net Terms of Service


Airport/ARTCC Code
Frequency Search
(e.g., 124.400, 128.75)
Site-wide search
 


Browse Feeds
Top 50 Feeds
HF Oceanic Feeds
Coverage Map
Bad Weather Areas

LiveATC FAQ
Offer LiveATC feed
Contact LiveATC.net
Press Inquiries

LiveATC on iPhone
LiveATC on Android

Windows Phone
Windows 8/10

LiveATC Mobile
(Mobile browser)

ATC Audio Archives
Interesting Recordings

LiveATC Forums


Home Page
About LiveATC.net
Make a Donation
Terms of Use
Privacy Policy

Canadian Air Freqs

AIRMETs/SIGMETs

FAA Airport Status
NAS Status
Arrival Demand


Server Software By:
Icecast.org
Liquidsoap